• In Netherlands
  • List of Countries
  • For 7 days
  • Water Temperature
  • Satellite Maps
  • Weather Map
  • Weather Widgets
  • user-avatar
    Login

    Hourly Weather Kalgoorlie

    Today, 24 September, Monday

    Time Temperature Precipitation Wind Pressure Humidity
    00:00 +24°C° 0 mm 3 mps 732 mmHg 23%
    01:00 +22°C° 0 mm 3 mps 732 mmHg 26%
    02:00 +21°C° 0 mm 2 mps 732 mmHg 30%
    03:00 +20°C° 0 mm 2 mps 732 mmHg 32%
    04:00 +19°C° 0 mm 2 mps 732 mmHg 35%
    05:00 +20°C° 0 mm 1 mps 732 mmHg 37%
    06:00 +21°C° 0 mm 2 mps 732 mmHg 32%
    07:00 +24°C° 0 mm 3 mps 733 mmHg 27%
    08:00 +27°C° 0 mm 4 mps 733 mmHg 21%
    09:00 +29°C° 0 mm 5 mps 733 mmHg 19%
    10:00 +32°C° 0 mm 5 mps 733 mmHg 16%
    11:00 +34°C° 0 mm 6 mps 732 mmHg 13%
    12:00 +34°C° 0 mm 6 mps 732 mmHg 13%
    13:00 +35°C° 0 mm 6 mps 731 mmHg 12%
    14:00 +35°C° 0 mm 6 mps 731 mmHg 12%
    15:00 +35°C° 0 mm 6 mps 730 mmHg 12%
    16:00 +34°C° 0 mm 6 mps 730 mmHg 13%
    17:00 +34°C° 0 mm 5 mps 730 mmHg 13%
    18:00 +32°C° 0 mm 5 mps 730 mmHg 16%
    19:00 +30°C° 0 mm 5 mps 730 mmHg 18%
    20:00 +28°C° 0 mm 4 mps 731 mmHg 20%
    21:00 +27°C° 0 mm 5 mps 731 mmHg 24%
    22:00 +26°C° 0 mm 5 mps 731 mmHg 27%
    23:00 +25°C° 0 mm 5 mps 731 mmHg 31%

    Tomorrow, 25 September, Tuesday

    Time Temperature Precipitation Wind Pressure Humidity
    00:00 +23°C° 0 mm 5 mps 731 mmHg 36%
    01:00 +22°C° 0 mm 5 mps 731 mmHg 40%
    02:00 +20°C° 0 mm 4 mps 731 mmHg 45%
    03:00 +20°C° 0 mm 4 mps 730 mmHg 48%
    04:00 +19°C° 0 mm 3 mps 730 mmHg 50%
    05:00 +18°C° 0 mm 3 mps 730 mmHg 53%
    06:00 +20°C° 0 mm 3 mps 731 mmHg 49%
    07:00 +21°C° 0 mm 3 mps 731 mmHg 45%
    08:00 +22°C° 0 mm 3 mps 732 mmHg 42%
    09:00 +25°C° 0 mm 4 mps 732 mmHg 37%
    10:00 +26°C° 0 mm 4 mps 732 mmHg 31%
    11:00 +28°C° 0 mm 5 mps 732 mmHg 26%
    12:00 +29°C° 0 mm 5 mps 731 mmHg 24%
    13:00 +30°C° 0 mm 6 mps 731 mmHg 22%
    14:00 +30°C° 0 mm 7 mps 730 mmHg 19%
    15:00 +30°C° 0 mm 6 mps 730 mmHg 19%
    16:00 +29°C° 0 mm 6 mps 730 mmHg 19%
    17:00 +29°C° 0 mm 6 mps 730 mmHg 19%
    18:00 +27°C° 0 mm 6 mps 731 mmHg 21%
    19:00 +26°C° 0 mm 6 mps 731 mmHg 23%
    20:00 +23°C° 0 mm 6 mps 732 mmHg 25%
    21:00 +22°C° 0 mm 6 mps 732 mmHg 31%
    22:00 +20°C° 0 mm 6 mps 732 mmHg 38%
    23:00 +18°C° 0 mm 7 mps 733 mmHg 44%

    Day after tomorrow, 26 September, Wednesday

    Time Temperature Precipitation Wind Pressure Humidity
    00:00 +17°C° 0 mm 6 mps 732 mmHg 52%
    01:00 +16°C° 0 mm 6 mps 732 mmHg 61%
    02:00 +15°C° 0 mm 5 mps 732 mmHg 69%
    03:00 +15°C° 0 mm 4 mps 732 mmHg 71%
    04:00 +14°C° 0 mm 4 mps 732 mmHg 72%
    05:00 +13°C° 0 mm 4 mps 732 mmHg 73%
    06:00 +15°C° 0 mm 4 mps 732 mmHg 68%
    07:00 +17°C° 0 mm 4 mps 733 mmHg 62%
    08:00 +17°C° 0 mm 5 mps 733 mmHg 57%
    09:00 +19°C° 0 mm 4 mps 733 mmHg 50%
    10:00 +21°C° 0 mm 4 mps 733 mmHg 44%
    11:00 +24°C° 0 mm 3 mps 732 mmHg 37%
    12:00 +25°C° 0 mm 2 mps 732 mmHg 33%
    13:00 +26°C° 0 mm 2 mps 731 mmHg 29%
    14:00 +27°C° 0 mm 1 mps 730 mmHg 25%
    15:00 +27°C° 0 mm 1 mps 730 mmHg 24%
    16:00 +27°C° 0 mm 2 mps 730 mmHg 23%
    17:00 +28°C° 0 mm 2 mps 730 mmHg 22%
    18:00 +27°C° 0 mm 2 mps 731 mmHg 24%
    19:00 +26°C° 0 mm 3 mps 731 mmHg 25%
    20:00 +24°C° 0 mm 3 mps 732 mmHg 27%
    21:00 +22°C° 0 mm 5 mps 732 mmHg 35%
    22:00 +20°C° 0 mm 7 mps 732 mmHg 44%
    23:00 +17°C° 0 mm 9 mps 732 mmHg 52%

    27 September, Thursday

    Time Temperature Precipitation Wind Pressure Humidity
    00:00 +16°C° 0 mm 9 mps 732 mmHg 59%
    01:00 +15°C° 0 mm 9 mps 732 mmHg 66%
    02:00 +12°C° 0 mm 9 mps 732 mmHg 73%
    03:00 +12°C° 0 mm 8 mps 732 mmHg 73%
    04:00 +12°C° 0 mm 8 mps 733 mmHg 73%
    05:00 +12°C° 0 mm 7 mps 733 mmHg 73%
    06:00 +12°C° 0 mm 7 mps 733 mmHg 69%
    07:00 +14°C° 0 mm 7 mps 734 mmHg 66%
    08:00 +14°C° 0 mm 7 mps 734 mmHg 62%
    09:00 +16°C° 0 mm 7 mps 734 mmHg 56%
    10:00 +19°C° 0 mm 6 mps 734 mmHg 49%
    11:00 +21°C° 0 mm 6 mps 734 mmHg 43%
    12:00 +22°C° 0 mm 5 mps 733 mmHg 41%
    13:00 +23°C° 0 mm 5 mps 732 mmHg 38%
    14:00 +25°C° 0 mm 4 mps 732 mmHg 36%
    15:00 +23°C° 0 mm 4 mps 732 mmHg 35%
    16:00 +23°C° 0 mm 4 mps 732 mmHg 34%
    17:00 +23°C° 0 mm 4 mps 732 mmHg 34%
    18:00 +22°C° 0 mm 5 mps 733 mmHg 35%
    19:00 +21°C° 0 mm 6 mps 733 mmHg 37%
    20:00 +20°C° 0 mm 7 mps 734 mmHg 39%
    21:00 +18°C° 0 mm 8 mps 734 mmHg 44%
    22:00 +16°C° 0 mm 9 mps 734 mmHg 50%
    23:00 +13°C° 0 mm 9 mps 734 mmHg 55%

    28 September, Friday

    Time Temperature Precipitation Wind Pressure Humidity
    00:00 +12°C° 0 mm 9 mps 734 mmHg 59%
    01:00 +11°C° 0 mm 9 mps 734 mmHg 63%
    02:00 +10°C° 0 mm 8 mps 733 mmHg 66%
    03:00 +10°C° 0 mm 8 mps 734 mmHg 67%
    04:00 +9°C° 0 mm 8 mps 734 mmHg 68%
    05:00 +9°C° 0 mm 8 mps 735 mmHg 69%
    06:00 +9°C° 0 mm 8 mps 735 mmHg 65%
    07:00 +10°C° 0 mm 8 mps 736 mmHg 61%
    08:00 +11°C° 0 mm 7 mps 737 mmHg 58%
    09:00 +12°C° 0 mm 7 mps 736 mmHg 51%
    10:00 +15°C° 0 mm 8 mps 736 mmHg 43%
    11:00 +17°C° 0 mm 8 mps 735 mmHg 36%
    12:00 +18°C° 0 mm 7 mps 735 mmHg 34%
    13:00 +20°C° 0 mm 7 mps 734 mmHg 31%
    14:00 +20°C° 0 mm 7 mps 733 mmHg 29%
    15:00 +20°C° 0 mm 8 mps 733 mmHg 29%
    16:00 +20°C° 0 mm 8 mps 733 mmHg 29%
    17:00 +18°C° 0 mm 9 mps 733 mmHg 29%
    18:00 +17°C° 0 mm 9 mps 734 mmHg 34%
    19:00 +16°C° 0 mm 9 mps 734 mmHg 39%
    20:00 +15°C° 0 mm 9 mps 735 mmHg 44%
    21:00 +13°C° 0 mm 9 mps 735 mmHg 45%
    22:00 +13°C° 0 mm 9 mps 734 mmHg 46%
    23:00 +12°C° 0 mm 9 mps 734 mmHg 47%

    29 September, Saturday

    Time Temperature Precipitation Wind Pressure Humidity
    00:00 +12°C° 0 mm 9 mps 734 mmHg 49%
    01:00 +11°C° 0 mm 9 mps 733 mmHg 50%
    02:00 +10°C° 0 mm 9 mps 733 mmHg 52%
    03:00 +10°C° 0 mm 9 mps 733 mmHg 56%
    04:00 +8°C° 0 mm 9 mps 733 mmHg 60%
    05:00 +8°C° 0 mm 9 mps 733 mmHg 64%
    06:00 +8°C° 0 mm 10 mps 734 mmHg 61%
    07:00 +9°C° 0 mm 10 mps 734 mmHg 59%
    08:00 +9°C° 0 mm 10 mps 734 mmHg 56%
    09:00 +12°C° 0 mm 11 mps 733 mmHg 51%
    10:00 +14°C° 0 mm 11 mps 732 mmHg 45%
    11:00 +17°C° 0 mm 11 mps 732 mmHg 39%
    12:00 +19°C° 0 mm 11 mps 731 mmHg 36%
    13:00 +21°C° 0 mm 11 mps 730 mmHg 33%
    14:00 +23°C° 0 mm 11 mps 729 mmHg 30%
    15:00 +23°C° 0 mm 11 mps 729 mmHg 30%
    16:00 +23°C° 0 mm 10 mps 728 mmHg 31%
    17:00 +23°C° 0 mm 10 mps 728 mmHg 31%
    18:00 +21°C° 0.1 mm 10 mps 728 mmHg 35%
    19:00 +19°C° 0.1 mm 9 mps 727 mmHg 39%
    20:00 +18°C° 0.1 mm 9 mps 727 mmHg 42%
    21:00 +18°C° 0.2 mm 10 mps 726 mmHg 46%
    22:00 +17°C° 0.2 mm 11 mps 726 mmHg 49%
    23:00 +17°C° 0.2 mm 11 mps 725 mmHg 52%
    Show more

    3.3.7123123